{"data":{"norad_id":67782,"epoch":"2026-09-20T03:37:51.710880Z","epoch_age_seconds":116627,"freshness":"FRESH","line1":"1 67782U 26030U   26263.15129295  .00000508  00000+0  95660-4 0  9996","line2":"2 67782  51.8985  60.8360 0001004 139.2833 220.8205 14.79928517 34149","mean_motion":14.79928517,"eccentricity":0.0001004,"inclination_deg":51.8985,"raan_deg":60.836,"arg_perigee_deg":139.2833,"mean_anomaly_deg":220.8205,"bstar":9.566e-5,"rev_number":3414,"period_min":97.301996918004,"perigee_km":628.84620917802,"apogee_km":630.25335268363,"semimajor_km":7007.6867809308,"source":"CELESTRAK","updated_at":"2026-09-21T09:00:16.855669Z"}}